Voltar ao catálogo

STARLINK-5677

AtivoComunicaçõesVLEO
NORAD 55463·PAYLOAD·🇺🇸 United States

Lançado Feb 2, 2023 de Cape Canaveral Space Force Station

Loading…

Próximas Passagens (próximas 24 horas)

TLE

AtualizadoSource: CelesTrak SupGP

Época: Sep 14, 2026, 20:44 UTC

1 55463C 23015Q   26257.86437500  .00013292  00000+0  58069-3 0  2573
2 55463  42.9994 354.7099 0008748 339.9288  99.1049 15.21276719    12

Acompanhe STARLINK-5677 em tempo real com AllMySat

Download on the App Store